• In Hungary
  • List of Countries
  • For 7 days
  • Water Temperature
  • Satellite Maps
  • Weather Map
  • News
  • Weather Widgets
  • user-avatar
    Login

    Hourly Weather Peschanyy

    Today, 16 July, Monday

    Time Temperature Precipitation Wind Pressure Humidity
    00:00 +21°C° 0 mm 1 mps 749 mmHg 94%
    01:00 +19°C° 0 mm 2 mps 749 mmHg 94%
    02:00 +19°C° 0 mm 2 mps 749 mmHg 95%
    03:00 +19°C° 0 mm 2 mps 749 mmHg 95%
    04:00 +19°C° 0 mm 2 mps 749 mmHg 94%
    05:00 +20°C° 0 mm 2 mps 749 mmHg 93%
    06:00 +21°C° 0 mm 2 mps 750 mmHg 92%
    07:00 +23°C° 0.3 mm 2 mps 750 mmHg 86%
    08:00 +25°C° 0.3 mm 2 mps 750 mmHg 81%
    09:00 +27°C° 0.3 mm 2 mps 750 mmHg 75%
    10:00 +27°C° 0.7 mm 2 mps 749 mmHg 71%
    11:00 +28°C° 0.7 mm 2 mps 749 mmHg 66%
    12:00 +29°C° 0.7 mm 2 mps 749 mmHg 62%
    13:00 +29°C° 0.6 mm 3 mps 749 mmHg 64%
    14:00 +29°C° 0.6 mm 3 mps 749 mmHg 66%
    15:00 +29°C° 0.6 mm 3 mps 749 mmHg 69%
    16:00 +28°C° 0.4 mm 3 mps 749 mmHg 73%
    17:00 +28°C° 0.4 mm 3 mps 749 mmHg 77%
    18:00 +27°C° 0.4 mm 2 mps 749 mmHg 80%
    19:00 +26°C° 0 mm 2 mps 749 mmHg 85%
    20:00 +24°C° 0 mm 2 mps 749 mmHg 89%
    21:00 +23°C° 0 mm 2 mps 749 mmHg 94%
    22:00 +21°C° 0 mm 2 mps 749 mmHg 95%
    23:00 +21°C° 0 mm 2 mps 749 mmHg 96%

    Tomorrow, 17 July, Tuesday

    Time Temperature Precipitation Wind Pressure Humidity
    00:00 +20°C° 0 mm 2 mps 749 mmHg 97%
    01:00 +20°C° 0 mm 2 mps 749 mmHg 97%
    02:00 +20°C° 0 mm 2 mps 749 mmHg 97%
    03:00 +20°C° 0 mm 2 mps 749 mmHg 97%
    04:00 +20°C° 0 mm 3 mps 749 mmHg 94%
    05:00 +21°C° 0 mm 3 mps 749 mmHg 91%
    06:00 +21°C° 0 mm 3 mps 749 mmHg 88%
    07:00 +23°C° 0 mm 4 mps 749 mmHg 81%
    08:00 +26°C° 0 mm 4 mps 749 mmHg 74%
    09:00 +27°C° 0 mm 4 mps 749 mmHg 67%
    10:00 +28°C° 0 mm 4 mps 748 mmHg 63%
    11:00 +29°C° 0 mm 5 mps 748 mmHg 59%
    12:00 +30°C° 0 mm 5 mps 748 mmHg 55%
    13:00 +30°C° 0.1 mm 5 mps 748 mmHg 56%
    14:00 +30°C° 0.1 mm 5 mps 748 mmHg 56%
    15:00 +30°C° 0.1 mm 5 mps 748 mmHg 57%
    16:00 +29°C° 0.1 mm 5 mps 748 mmHg 62%
    17:00 +28°C° 0.1 mm 4 mps 748 mmHg 68%
    18:00 +27°C° 0.1 mm 3 mps 747 mmHg 73%
    19:00 +25°C° 0 mm 3 mps 747 mmHg 77%
    20:00 +24°C° 0 mm 3 mps 747 mmHg 82%
    21:00 +21°C° 0 mm 3 mps 747 mmHg 86%
    22:00 +21°C° 0 mm 4 mps 747 mmHg 86%
    23:00 +21°C° 0 mm 4 mps 746 mmHg 86%

    Day after tomorrow, 18 July, Wednesday

    Time Temperature Precipitation Wind Pressure Humidity
    00:00 +21°C° 0 mm 4 mps 746 mmHg 86%
    01:00 +21°C° 0.7 mm 4 mps 746 mmHg 88%
    02:00 +21°C° 0.7 mm 5 mps 746 mmHg 91%
    03:00 +21°C° 0.7 mm 5 mps 746 mmHg 94%
    04:00 +21°C° 2.1 mm 5 mps 745 mmHg 94%
    05:00 +20°C° 2.1 mm 5 mps 745 mmHg 95%
    06:00 +20°C° 2.1 mm 5 mps 745 mmHg 96%
    07:00 +20°C° 1.8 mm 5 mps 745 mmHg 96%
    08:00 +20°C° 1.8 mm 5 mps 746 mmHg 95%
    09:00 +20°C° 1.8 mm 5 mps 746 mmHg 95%
    10:00 +21°C° 0.3 mm 5 mps 746 mmHg 95%
    11:00 +21°C° 0.3 mm 4 mps 746 mmHg 95%
    12:00 +21°C° 0.3 mm 4 mps 746 mmHg 95%
    13:00 +22°C° 0.3 mm 4 mps 746 mmHg 92%
    14:00 +23°C° 0.3 mm 4 mps 747 mmHg 89%
    15:00 +25°C° 0.3 mm 4 mps 747 mmHg 86%
    16:00 +25°C° 1.2 mm 4 mps 747 mmHg 87%
    17:00 +25°C° 1.2 mm 3 mps 747 mmHg 88%
    18:00 +25°C° 1.2 mm 3 mps 747 mmHg 90%
    19:00 +24°C° 0.3 mm 3 mps 747 mmHg 92%
    20:00 +22°C° 0.3 mm 3 mps 748 mmHg 93%
    21:00 +21°C° 0.3 mm 3 mps 748 mmHg 95%
    22:00 +21°C° 0.7 mm 2 mps 748 mmHg 96%
    23:00 +20°C° 0.7 mm 2 mps 748 mmHg 96%

    19 July, Thursday

    Time Temperature Precipitation Wind Pressure Humidity
    00:00 +20°C° 0.7 mm 2 mps 748 mmHg 97%
    01:00 +20°C° 0.1 mm 2 mps 748 mmHg 97%
    02:00 +20°C° 0.1 mm 2 mps 748 mmHg 97%
    03:00 +20°C° 0.1 mm 1 mps 749 mmHg 97%
    04:00 +21°C° 0.1 mm 1 mps 749 mmHg 96%
    05:00 +22°C° 0.1 mm 1 mps 749 mmHg 95%
    06:00 +22°C° 0.1 mm 1 mps 749 mmHg 94%
    07:00 +23°C° 0.7 mm 1 mps 749 mmHg 90%
    08:00 +25°C° 0.7 mm 1 mps 750 mmHg 87%
    09:00 +26°C° 0.7 mm 2 mps 750 mmHg 83%
    10:00 +26°C° 0.7 mm 1 mps 750 mmHg 79%
    11:00 +27°C° 0.7 mm 1 mps 750 mmHg 75%
    12:00 +28°C° 0.7 mm 1 mps 750 mmHg 71%
    13:00 +28°C° 0.1 mm 1 mps 750 mmHg 68%
    14:00 +29°C° 0.1 mm 1 mps 750 mmHg 64%
    15:00 +29°C° 0.1 mm 1 mps 750 mmHg 60%
    16:00 +29°C° 0.5 mm 1 mps 750 mmHg 65%
    17:00 +28°C° 0.5 mm 1 mps 750 mmHg 71%
    18:00 +28°C° 0.5 mm 1 mps 750 mmHg 76%
    19:00 +26°C° 0.1 mm 1 mps 750 mmHg 80%
    20:00 +24°C° 0.1 mm 1 mps 750 mmHg 85%
    21:00 +23°C° 0.1 mm 2 mps 750 mmHg 89%
    22:00 +21°C° 0.1 mm 2 mps 750 mmHg 91%
    23:00 +21°C° 0.1 mm 2 mps 750 mmHg 92%

    20 July, Friday

    Time Temperature Precipitation Wind Pressure Humidity
    00:00 +20°C° 0.1 mm 2 mps 751 mmHg 94%
    01:00 +20°C° 0.1 mm 2 mps 751 mmHg 94%
    02:00 +21°C° 0.1 mm 1 mps 751 mmHg 95%
    03:00 +20°C° 0.1 mm 1 mps 751 mmHg 95%
    04:00 +21°C° 0 mm 1 mps 751 mmHg 94%
    05:00 +21°C° 0 mm 2 mps 751 mmHg 94%
    06:00 +23°C° 0 mm 2 mps 751 mmHg 93%
    07:00 +24°C° 0.7 mm 2 mps 751 mmHg 89%
    08:00 +25°C° 0.7 mm 2 mps 751 mmHg 85%
    09:00 +26°C° 0.7 mm 2 mps 751 mmHg 82%
    10:00 +27°C° 0.8 mm 2 mps 751 mmHg 79%
    11:00 +27°C° 0.8 mm 2 mps 751 mmHg 77%
    12:00 +28°C° 0.8 mm 2 mps 751 mmHg 74%
    13:00 +28°C° 0.6 mm 2 mps 751 mmHg 75%
    14:00 +27°C° 0.6 mm 2 mps 751 mmHg 75%
    15:00 +27°C° 0.6 mm 2 mps 751 mmHg 75%
    16:00 +27°C° 0.2 mm 2 mps 751 mmHg 78%
    17:00 +27°C° 0.2 mm 2 mps 751 mmHg 80%
    18:00 +26°C° 0.2 mm 2 mps 751 mmHg 82%
    19:00 +25°C° 0.4 mm 2 mps 751 mmHg 86%
    20:00 +24°C° 0.4 mm 2 mps 751 mmHg 91%
    21:00 +21°C° 0.4 mm 2 mps 751 mmHg 96%
    22:00 +21°C° 0.3 mm 2 mps 751 mmHg 96%
    23:00 +20°C° 0.3 mm 2 mps 751 mmHg 97%

    21 July, Saturday

    Time Temperature Precipitation Wind Pressure Humidity
    00:00 +19°C° 0.3 mm 2 mps 750 mmHg 97%
    01:00 +19°C° 0 mm 2 mps 750 mmHg 97%
    02:00 +19°C° 0 mm 2 mps 750 mmHg 97%
    03:00 +19°C° 0 mm 2 mps 750 mmHg 98%
    04:00 +19°C° 0 mm 3 mps 750 mmHg 96%
    05:00 +20°C° 0 mm 3 mps 751 mmHg 95%
    06:00 +20°C° 0 mm 3 mps 751 mmHg 93%
    07:00 +22°C° 0 mm 4 mps 751 mmHg 87%
    08:00 +23°C° 0 mm 4 mps 751 mmHg 82%
    09:00 +25°C° 0 mm 5 mps 751 mmHg 76%
    10:00 +26°C° 0.1 mm 5 mps 751 mmHg 72%
    11:00 +27°C° 0.1 mm 5 mps 751 mmHg 68%
    12:00 +28°C° 0.1 mm 6 mps 751 mmHg 65%
    13:00 +28°C° 0.2 mm 6 mps 751 mmHg 64%
    14:00 +28°C° 0.2 mm 6 mps 751 mmHg 63%
    15:00 +28°C° 0.2 mm 6 mps 751 mmHg 63%
    16:00 +27°C° 0.2 mm 5 mps 751 mmHg 65%
    17:00 +27°C° 0.2 mm 4 mps 751 mmHg 68%
    18:00 +26°C° 0.2 mm 4 mps 751 mmHg 71%
    19:00 +25°C° 0 mm 4 mps 752 mmHg 73%
    20:00 +22°C° 0 mm 4 mps 752 mmHg 75%
    21:00 +21°C° 0 mm 4 mps 752 mmHg 77%
    22:00 +21°C° 0 mm 4 mps 752 mmHg 77%
    23:00 +20°C° 0 mm 4 mps 752 mmHg 77%
    Show more